sat.trackr.live / text

‹ back to catalog

STARLINK-36523

NORAD 67460 · 2026-008R

PAYLOAD ACTIVE UNKNOWN

§ Identity

Operator
Country
US
Launch date
2026-01-14
Launch site
AFETR
Launch vehicle
Mass (kg)
RCS (m²)

Purposes: comms

External: N2YO · Heavens-Above · Gunter

§ Orbital elements

Epoch: 2026-05-25T00:39:10.702080Z

Period
94.27 min
Inclination
43.0043°
Eccentricity
0.0002307
Mean motion
15.27606773 rev/d
Perigee alt
481.4 km
Apogee alt
484.6 km
Semi-major
6,861.1 km
B*
8.5081e-4
RAAN
134.4077°
Arg perigee
285.4815°
Mean anomaly
74.5782°
Rev number
2,124

§ Raw data

STARLINK-365231 67460U 26008R   26145.02720720  .00023244  00000+0  85081-3 0  99962 67460  43.0043 134.4077 0002307 285.4815  74.5782 15.27606773 21246

JSON: /api/v1/satellites/67460 · /tle

For live sub-satellite position, see the globe view (requires WebGL).

§ Visibility from observer

Set your observer location to see the next 7 days of passes ≥ 10°. The values pass through the URL so the page stays shareable.

No JS? Fill the form by hand. The geolocation button needs JavaScript.